Orbital Elements at Epoch 2459000.5 (2020-May-31.0) TDB
Reference: JPL 19 (heliocentric ecliptic J2000)
Element | Value | Uncertainty (1-sigma) | Units |
e | .1125192483254255 | 3.2156e-08 | |
a | 2.75092056521304 | 1.4132e-08 | au |
q | 2.441389051012314 | 9.057e-08 | au |
i | 5.141249620411104 | 3.7996e-06 | deg |
node | 114.0808783992687 | 4.4624e-05 | deg |
peri | 325.8111944969124 | 4.9783e-05 | deg |
M | 241.3991019699227 | 2.4183e-05 | deg |
tp | 2459549.536198142185 (2021-Dec-01.03619814) | 0.00011386 | TDB |
period | 1666.539078659097 4.56 | 1.2842e-05 3.516e-08 | d yr |
n | .2160165366717096 | 1.6646e-09 | deg/d |
Q | 3.060452079413765 | 1.5722e-08 | au |
|
| | Orbit Determination Parameters
Additional Information
|